Regional Weather Roundup
Issued by NWS Charleston, SC

Current Version | Previous Version | Text Only | Print | Product List | Glossary Off
Versions: 1 2 3 4 5 6 7 8 9 10 11 12 13 14 15 16 17 18 19 20 21 22 23 24 25 26 27 28 29 30 31 32 33 34 35 36 37 38 39 40 41 42 43 44 45 46 47 48 49 50

000
ASUS42 KCHS 180410
RWRCHS
REGIONAL WEATHER ROUNDUP
NATIONAL WEATHER SERVICE CHARLESTON SC
1200 AM EDT FRI APR 18 2014

NOTE: "FAIR" INDICATES FEW OR NO CLOUDS BELOW 12,000 FEET WITH NO
SIGNIFICANT WEATHER AND/OR OBSTRUCTIONS TO VISIBILITY.

NOT ALL STATIONS ARE QUALITY CONTROLLED BY THE NATIONAL
WEATHER SERVICE. USE DATA WITH CAUTION...ESPECIALLY
DEWPOINT OBSERVATIONS.

SCZ027-030-031-034>040-042>050-180500-
...SOUTH CAROLINA...

CITY           SKY/WX    TMP DP  RH WIND       PRES   REMARKS
N CHARLESTON   MOCLDY    58  51  78 E8        30.35F
WATERFRONT PRK   N/A     61 N/A N/A NE13        N/A
FORT JOHNSON   NOT AVBL
MOUNT PLEASANT FAIR     N/A N/A N/A CALM      30.35F
JOHNS ISLAND   CLEAR     61  55  82 NE10      30.34F
PINOPOLIS        N/A     57  52  82 E7        30.29S
MONCKS CORNER  FAIR      55  54  94 E3        30.36F
SUMMERVILLE    FAIR      52  50  93 CALM      30.35F
BEAUFORT MCAS  CLOUDY    61  52  72 E8G17     30.33F
BEAUFORT ARPT  FAIR      61  55  82 NE14      30.32F
HILTON HEAD IS NOT AVBL
GEORGETOWN     NOT AVBL
WALTERBORO     MOCLDY    54  54 100 E6        30.36S
ORANGEBURG     MOCLDY    53  44  71 NE3       30.36F
BARNWELL       FAIR      55  45  67 E7        30.36S
AIKEN          FAIR      52  45  76 CALM      30.38F
MANNING        FAIR      50 N/A N/A CALM      30.37F
KINGSTREE      NOT AVBL
COLUMBIA       MOCLDY    57  43  59 NE3       30.36F
SUMTER         MOCLDY    49  43  80 NE7       30.37S
FLORENCE       CLEAR     50  44  80 CALM      30.40R
MYRTLE BEACH   CLEAR     57  50  77 NE12G17   30.37F
N MYRTLE BEACH CLEAR     55  48  77 NE9       30.38F

$$

GAZ063-065-086>088-099>101-113>116-118-119-134-136>141-150-180500-
...GEORGIA...

CITY           SKY/WX    TMP DP  RH WIND       PRES   REMARKS
SAVANNAH ARPT  MOCLDY    59  50  72 NE6       30.32F
HUNTER AAF     MOCLDY    61  51  70 E10       30.29F
FORT STEWART   PTCLDY    57  53  87 E6        30.29F
STATESBORO     NOT AVBL
SYLVANIA       CLOUDY    59  50  70 E8        30.34S
CLAXTON        FAIR      59  54  82 E5        30.32S
THOMSON        CLOUDY    56  42  60 NE3       30.39S
AUGUSTA-BUSH   CLOUDY    52  43  71 CALM      30.34F
AUGUSTA-DANIEL CLOUDY    59  40  49 NE10      30.34F
SWAINSBORO     FAIR      57  48  72 E5        30.32S
VIDALIA        CLOUDY    59  50  72 E12G17    30.30F
ALMA           CLOUDY    58  48  69 E6        30.28F
WAYCROSS       NOT AVBL
JESUP          FAIR      59  54  82 E8        30.28F
BRUNSWICK      CLOUDY    63  57  82 NE12G20   30.28F
SAINT SIMONS   CLOUDY    63  57  81 NE17      30.28F

$$

SCZ027-028-034-036>038-045-046-048>050-GAZ119-141-180500-
...LAKE AND SUPPLEMENTAL COASTAL OBSERVATIONS...

STATION/POSITION TIME  TEMP    WIND        PRES    WAVE   SWELL
                       AIR SEA DIR/SP/G            HT/PER HT/PER/DIR
                 (UTC) (F)     (DEG/KT/KT) (MB)    (FT/S) (FT/S/D)
UPR LAKE MARION  NOT AVBL
WINYAH BAY       0300   61      70/ 15     1028.0F
LAKE MURRAY      0300   56      30/  3/  5 1028.1F
ACE BASIN NERRS  0300   59      60/  3     1028.0S
FORT PULASKI     0400   63 60   50/ 20/ 25 1026.7S
SAPELO ISLAND    0300   63      50/ 13     1026.0S

$$

ANZ835-935-AMZ111-154-330-350-352-354-374-450-454-472-180500-
...C-MAN AND BUOY OBSERVATIONS...

STATION/POSITION TIME  TEMP    WIND        PRES    WAVE   SWELL
                       AIR SEA DIR/SP/G            HT/PER HT/PER/DIR
                 (UTC) (F)     (DEG/KT/KT) (MB)    (FT/S) (FT/S/D)
FOLLY BEACH CMAN 0300   62      60/ 18/ 21 1028.4F
BUOY 41004       NOT AVBL
BUOY 41008       0400   65 64   50/ 21/ 27 1024.4F   7/ 7   2/100/12
5E ST. MARYS GA  0400      64                N/A     7/ 7   2/ 70/11
FRYING PAN BUOY  0400   59 64   60/ 23/ 27 1027.5F   8/ 8
BUOY 41025       NOT AVBL
CAPE LOOKOUT NC  0300   51      10/ 22/ 27 1029.9F
BUOY 41002       NOT AVBL
BUOY 41010       0400   73 76   60/ 19/ 23 1022.2F   9/10   7/ 40/10
BUOY 41012       NOT AVBL
ST AUGUSTINE FL  0400   67      50/  9/ 10 1023.6F
CAPERS NEARSHORE NOT AVBL
FRIPP NEARSHORE  0300   62      80/ 17/ 21   N/A


$$



USA.gov is the U.S. government's official web portal to all federal, state and local government web resources and services.